星链-5753 (STARLINK-5753 )

导读

STARLINK-5753是美国SpaceX公司星链(Starlink)星座中的一颗卫星,于2023年2月12日发射,属于星链第二代部署阶段的卫星。星链项目旨在构建全球低轨卫星互联网系统,提供覆盖全球的高速宽带服务,该卫星运行于近地轨道,是SpaceX大规模卫星星座部署的组成部分,助力实现全球范围内的宽带互联与各类场景通信服务扩展。

Basic Information
目录编号:
55581
目录名称:
STARLINK-5753
国际标识:
2023-020N
轨道中心:
EARTH
卫星名称:
星链-5753
卫星全名:
星链-5753 (STARLINK-5753 )
卫星状态:
在轨 (已飞行1219 天)
发射日期:
2023-02-12 UTC
国别 :
美国 (US)
星等 :
--
Orbit Information
数据来源 国际轨道数据 AOE轨道数据
星历时间 2026-06-14T16:11:39+0800
18小时前
查看轨道信息
2026-06-12T05:00:00+0800
3天前
查看轨道信息
半长轴 6861.207km 6861.19km
偏心率 0.0001082 0.0001257
轨道倾角 43.002° 42.999°
近地点辐角 268.453° 251.446°
升交点赤经 186.250° 200.183°
平近点角 91.620° 209.157°
近地点 482.327km 482.19km
远地点 483.813km 483.916km
周期 94.267分钟 94.267分钟
每日圈数 15.275733 15.275788
Detailed Information
固有亮度:
5
最大亮度:
2.5
卫星平台:
Starlink v1.5
覆盖范围:
全球
运营商:
太空探索技术公司
运营商所在国:
美国
制造商(研发单位):
太空探索技术公司
制造商所在国:
美国
使用方式:
暂无
Satellite Introduction
星链(Starlink)计划是由太空探索技术公司(SpaceX)提出的一个巨型低轨卫星互联网星座项目,计划在2019年至2024年间在太空搭建由约1.2万颗卫星组成的“星链”网络,其中1584颗将部署在地球上空550千米处的近地轨道,并从2020年开始工作。该卫星仍在工作。
2D Orbit Map
3D Orbit Map
Orbit Altitude Analysis Chart
Orbit Inclination Analysis Chart
Orbit Comprehensive Analysis Chart
View Comprehensive Chart